• In Netherlands
  • List of Countries
  • For 7 days
  • Water Temperature
  • Satellite Maps
  • Weather Map
  • Weather Widgets
  • user-avatar
    Login

    Hourly Weather Sliven

    Today, 23 January, Monday

    Time Temperature Precipitation Wind Pressure Humidity
    00:00 -4°C° 0 mm 1 mps 743 mmHg 96%
    01:00 -6°C° 0 mm 1 mps 743 mmHg 96%
    02:00 -6°C° 0 mm 1 mps 743 mmHg 97%
    03:00 -6°C° 0 mm 1 mps 743 mmHg 96%
    04:00 -4°C° 0 mm 1 mps 743 mmHg 96%
    05:00 -4°C° 0 mm 1 mps 742 mmHg 96%
    06:00 -4°C° 0 mm 1 mps 742 mmHg 96%
    07:00 -4°C° 0 mm 1 mps 742 mmHg 96%
    08:00 -3°C° 0 mm 1 mps 742 mmHg 96%
    09:00 -2°C° 0 mm 1 mps 742 mmHg 95%
    10:00 0°C° 0 mm 1 mps 742 mmHg 94%
    11:00 +1°C° 0 mm 1 mps 742 mmHg 93%
    12:00 +1°C° 0 mm 1 mps 742 mmHg 93%
    13:00 +2°C° 0 mm 1 mps 741 mmHg 94%
    14:00 +2°C° 0 mm 1 mps 741 mmHg 94%
    15:00 +1°C° 0 mm 1 mps 741 mmHg 95%
    16:00 0°C° 0 mm 1 mps 740 mmHg 96%
    17:00 -1°C° 0 mm 1 mps 740 mmHg 97%
    18:00 -1°C° 0 mm 1 mps 740 mmHg 97%
    19:00 -1°C° 0 mm 1 mps 739 mmHg 97%
    20:00 -2°C° 0 mm 1 mps 739 mmHg 97%
    21:00 -1°C° 0 mm 1 mps 739 mmHg 97%
    22:00 -1°C° 0 mm 1 mps 739 mmHg 97%
    23:00 -1°C° 0 mm 1 mps 738 mmHg 97%

    Tomorrow, 24 January, Tuesday

    Time Temperature Precipitation Wind Pressure Humidity
    00:00 -3°C° 0 mm 0 mps 738 mmHg 98%
    01:00 -4°C° 0 mm 0 mps 738 mmHg 98%
    02:00 -5°C° 0 mm 0 mps 737 mmHg 98%
    03:00 -5°C° 0 mm 0 mps 737 mmHg 98%
    04:00 -5°C° 0 mm 0 mps 736 mmHg 98%
    05:00 -5°C° 0 mm 0 mps 736 mmHg 98%
    06:00 -5°C° 0 mm 0 mps 736 mmHg 98%
    07:00 -5°C° 0 mm 0 mps 735 mmHg 98%
    08:00 -5°C° 0 mm 0 mps 735 mmHg 98%
    09:00 -3°C° 0 mm 0 mps 736 mmHg 96%
    10:00 -1°C° 0 mm 0 mps 736 mmHg 94%
    11:00 +1°C° 0 mm 0 mps 736 mmHg 92%
    12:00 +1°C° 0 mm 0 mps 735 mmHg 92%
    13:00 +1°C° 0 mm 0 mps 735 mmHg 92%
    14:00 +3°C° 0 mm 1 mps 735 mmHg 92%
    15:00 +2°C° 0 mm 1 mps 735 mmHg 93%
    16:00 +1°C° 0 mm 1 mps 734 mmHg 95%
    17:00 +1°C° 0 mm 1 mps 734 mmHg 96%
    18:00 0°C° 0 mm 1 mps 734 mmHg 96%
    19:00 0°C° 0 mm 1 mps 735 mmHg 96%
    20:00 -3°C° 0 mm 2 mps 735 mmHg 96%
    21:00 -3°C° 0 mm 2 mps 735 mmHg 96%
    22:00 -3°C° 0 mm 2 mps 735 mmHg 96%
    23:00 -3°C° 0 mm 2 mps 735 mmHg 95%

    Day after tomorrow, 25 January, Wednesday

    Time Temperature Precipitation Wind Pressure Humidity
    00:00 -3°C° 0 mm 2 mps 735 mmHg 95%
    01:00 -3°C° 0 mm 2 mps 735 mmHg 94%
    02:00 -3°C° 0 mm 2 mps 735 mmHg 94%
    03:00 -3°C° 0 mm 2 mps 735 mmHg 94%
    04:00 -4°C° 0 mm 2 mps 735 mmHg 93%
    05:00 -4°C° 0 mm 2 mps 735 mmHg 93%
    06:00 -4°C° 0 mm 2 mps 736 mmHg 93%
    07:00 -4°C° 0 mm 2 mps 736 mmHg 92%
    08:00 -4°C° 0 mm 2 mps 736 mmHg 92%
    09:00 -5°C° 0 mm 3 mps 737 mmHg 89%
    10:00 -5°C° 0 mm 3 mps 737 mmHg 87%
    11:00 -4°C° 0 mm 4 mps 737 mmHg 84%
    12:00 -4°C° 0 mm 3 mps 737 mmHg 83%
    13:00 -4°C° 0 mm 3 mps 737 mmHg 82%
    14:00 -4°C° 0 mm 3 mps 737 mmHg 81%
    15:00 -4°C° 0 mm 3 mps 737 mmHg 84%
    16:00 -5°C° 0 mm 3 mps 737 mmHg 86%
    17:00 -6°C° 0 mm 3 mps 737 mmHg 88%
    18:00 -6°C° 0 mm 3 mps 738 mmHg 89%
    19:00 -7°C° 0 mm 3 mps 738 mmHg 89%
    20:00 -6°C° 0 mm 2 mps 738 mmHg 90%
    21:00 -6°C° 0 mm 2 mps 738 mmHg 90%
    22:00 -6°C° 0 mm 2 mps 739 mmHg 90%
    23:00 -6°C° 0 mm 2 mps 739 mmHg 90%

    26 January, Thursday

    Time Temperature Precipitation Wind Pressure Humidity
    00:00 -6°C° 0 mm 2 mps 739 mmHg 90%
    01:00 -6°C° 0 mm 2 mps 739 mmHg 91%
    02:00 -6°C° 0 mm 2 mps 739 mmHg 91%
    03:00 -6°C° 0 mm 2 mps 739 mmHg 91%
    04:00 -6°C° 0 mm 2 mps 739 mmHg 91%
    05:00 -6°C° 0 mm 2 mps 739 mmHg 91%
    06:00 -6°C° 0 mm 2 mps 739 mmHg 90%
    07:00 -6°C° 0 mm 2 mps 739 mmHg 90%
    08:00 -6°C° 0 mm 2 mps 740 mmHg 90%
    09:00 -6°C° 0.1 mm 3 mps 740 mmHg 87%
    10:00 -5°C° 0.1 mm 4 mps 741 mmHg 84%
    11:00 -5°C° 0.1 mm 4 mps 741 mmHg 81%
    12:00 -5°C° 0 mm 4 mps 741 mmHg 79%
    13:00 -5°C° 0 mm 4 mps 741 mmHg 77%
    14:00 -7°C° 0 mm 4 mps 741 mmHg 74%
    15:00 -8°C° 0 mm 4 mps 741 mmHg 77%
    16:00 -8°C° 0 mm 3 mps 741 mmHg 79%
    17:00 -9°C° 0 mm 3 mps 741 mmHg 81%
    18:00 -10°C° 0 mm 3 mps 742 mmHg 81%
    19:00 -12°C° 0 mm 3 mps 742 mmHg 82%
    20:00 -12°C° 0 mm 3 mps 743 mmHg 83%
    21:00 -13°C° 0 mm 3 mps 743 mmHg 83%
    22:00 -13°C° 0 mm 3 mps 743 mmHg 82%
    23:00 -13°C° 0 mm 3 mps 744 mmHg 82%

    27 January, Friday

    Time Temperature Precipitation Wind Pressure Humidity
    00:00 -13°C° 0 mm 3 mps 744 mmHg 83%
    01:00 -13°C° 0 mm 3 mps 744 mmHg 83%
    02:00 -14°C° 0 mm 3 mps 744 mmHg 83%
    03:00 -14°C° 0 mm 3 mps 744 mmHg 83%
    04:00 -14°C° 0 mm 3 mps 744 mmHg 83%
    05:00 -14°C° 0 mm 3 mps 744 mmHg 83%
    06:00 -14°C° 0 mm 3 mps 744 mmHg 83%
    07:00 -15°C° 0 mm 3 mps 744 mmHg 83%
    08:00 -15°C° 0 mm 3 mps 744 mmHg 83%
    09:00 -14°C° 0 mm 3 mps 744 mmHg 80%
    10:00 -14°C° 0 mm 4 mps 745 mmHg 77%
    11:00 -12°C° 0 mm 4 mps 745 mmHg 73%
    12:00 -12°C° 0 mm 4 mps 744 mmHg 72%
    13:00 -11°C° 0 mm 4 mps 744 mmHg 71%
    14:00 -11°C° 0 mm 4 mps 744 mmHg 70%
    15:00 -12°C° 0 mm 4 mps 744 mmHg 73%
    16:00 -14°C° 0 mm 4 mps 744 mmHg 75%
    17:00 -14°C° 0 mm 4 mps 744 mmHg 77%
    18:00 -15°C° 0 mm 4 mps 744 mmHg 78%
    19:00 -15°C° 0 mm 4 mps 744 mmHg 79%
    20:00 -16°C° 0 mm 4 mps 744 mmHg 80%
    21:00 -15°C° 0 mm 3 mps 744 mmHg 80%
    22:00 -15°C° 0 mm 3 mps 744 mmHg 80%
    23:00 -15°C° 0 mm 3 mps 744 mmHg 81%

    28 January, Saturday

    Time Temperature Precipitation Wind Pressure Humidity
    00:00 -15°C° 0 mm 3 mps 744 mmHg 80%
    01:00 -15°C° 0 mm 3 mps 744 mmHg 80%
    02:00 -15°C° 0 mm 3 mps 744 mmHg 80%
    03:00 -16°C° 0 mm 3 mps 744 mmHg 80%
    04:00 -16°C° 0 mm 3 mps 744 mmHg 80%
    05:00 -16°C° 0 mm 3 mps 743 mmHg 80%
    06:00 -16°C° 0 mm 3 mps 744 mmHg 80%
    07:00 -15°C° 0 mm 2 mps 744 mmHg 80%
    08:00 -15°C° 0 mm 2 mps 744 mmHg 79%
    09:00 -14°C° 0 mm 2 mps 744 mmHg 74%
    10:00 -12°C° 0 mm 2 mps 745 mmHg 69%
    11:00 -12°C° 0 mm 3 mps 745 mmHg 64%
    12:00 -10°C° 0 mm 3 mps 745 mmHg 63%
    13:00 -9°C° 0 mm 3 mps 744 mmHg 61%
    14:00 -9°C° 0 mm 3 mps 744 mmHg 60%
    15:00 -10°C° 0 mm 3 mps 744 mmHg 63%
    16:00 -10°C° 0 mm 2 mps 744 mmHg 67%
    17:00 -12°C° 0 mm 2 mps 744 mmHg 70%
    18:00 -12°C° 0 mm 2 mps 744 mmHg 70%
    19:00 -13°C° 0 mm 2 mps 744 mmHg 71%
    20:00 -14°C° 0 mm 2 mps 744 mmHg 72%
    21:00 -14°C° 0 mm 2 mps 744 mmHg 71%
    22:00 -14°C° 0 mm 2 mps 744 mmHg 69%
    23:00 -12°C° 0 mm 1 mps 744 mmHg 68%
    Show more